[[{"header":{"parameterUnit":"m.s-1","parameterCategory":1,"la1":30.2991,"la2":30.254,"lo1":-89.0895,"lo2":-89.0444,"dy":0.0017,"dx":0.0017,"nx":28,"ny":28,"refTime":"2023-07-29T03:00:00:Z","depth":0,"parameterNumber":2,"parameterNumberName":"U-component_of_WINDS"},"data":[0,0,0,0,0,0,0,0,0,0,0,0,0,0,0,0,0,0,0,0,0,0,0,0,0,0,0,0,0,0,0,0,0,0,0,0,0,0,0,0,0,0,0,0,0,0,0,0,0,0,0,0,0,0,0,0,0,0,1.0689,1.069,0,1.0788,1.0789,1.0791,1.0778,1.0776,1.0775,1.0773,1.088,1.0884,1.0889,0,0,0,0,0,0,0,0,0,0,0,0,0,1.0493,1.0497,1.0689,1.069,1.0692,1.0788,1.0789,1.0791,1.0778,1.0776,1.0774,1.0772,1.0879,1.0884,1.0889,0,0,0,0,0,0,0,0,0,0,0,0,0,1.0584,1.0498,1.0689,1.0697,1.0698,1.0788,1.0789,1.0791,1.0779,1.0776,1.0774,1.0771,1.0877,1.0883,1.089,1.0979,0,0,1.091,1.0913,0,0,0,0,0,0,0,0,1.0579,1.0591,1.0694,1.0696,1.0698,1.0768,1.076,1.0854,1.0779,1.0748,1.0773,1.077,1.0845,1.0854,1.0878,1.0984,1.0989,1.091,1.0914,1.0917,1.0919,0,0,0,0,0,0,0,1.0573,1.0587,1.0729,1.0696,1.0698,1.0697,1.0707,1.0778,1.081,1.0751,1.075,1.0762,1.0846,1.0872,1.0881,1.099,1.091,1.0916,1.092,1.0923,1.1174,1.1177,0,0,0,0,0,0,1.0564,1.0582,1.0725,1.0731,1.0631,1.0702,1.0714,1.0748,1.0809,1.0815,1.0764,1.0761,1.0862,1.0873,1.0884,1.0993,1.0917,1.0923,1.0927,1.1172,1.1175,1.1178,0,0,0,0,0,0,1.056,1.0577,1.0721,1.0657,1.0675,1.0708,1.0747,1.0752,1.0778,1.0818,1.0824,1.0784,1.0861,1.0875,1.0955,1.0997,1.0926,1.0932,1.1168,1.1173,1.1177,1.1211,0,0,0,0,0,0,1.0554,1.0575,1.0609,1.0657,1.0678,1.0789,1.075,1.0755,1.0788,1.0785,1.0839,1.0846,1.086,1.0946,1.0962,1.1004,1.0937,1.1165,1.117,1.1175,1.1206,1.1216,1.1224,0,0,0,0,0,1.0547,1.0616,1.061,1.0628,1.072,1.0792,1.0804,1.0817,1.0792,1.0826,1.0852,1.0844,1.0989,1.0954,1.0972,1.1017,1.1162,1.1169,1.1175,1.1202,1.1214,1.1224,0,0,0,0,0,0,1.0573,1.0622,1.0617,1.0703,1.0743,1.0789,1.0833,1.0829,1.0878,1.0874,1.0889,1.0902,1.0982,1.1008,1.0968,1.1107,1.1073,1.1083,1.1087,1.1099,1.1107,1.11,1.0943,0,0,0,0,0,1.0588,1.0641,1.0681,1.0754,1.0774,1.08,1.0832,1.0838,1.0881,1.0898,1.093,1.0973,1.1029,1.1065,1.1118,1.121,1.1221,1.125,1.1258,1.1265,1.1274,1.1325,1.1338,1.1198,1.1198,1.1198,0,0,1.0622,1.0655,1.0687,1.076,1.0791,1.0846,1.0815,1.0874,1.0916,1.0908,1.0985,1.101,1.1059,1.1145,1.1185,1.1169,1.1315,1.1273,1.1278,1.1284,1.1332,1.1345,1.1357,1.1203,1.1202,1.1201,0,0,1.071,1.074,1.0803,1.0835,1.0883,1.09,1.0915,1.0962,1.0977,1.1054,1.1049,1.11,1.1194,1.123,1.126,1.136,1.1355,1.1377,1.1424,1.1473,1.1484,1.1493,1.153,1.1542,1.1386,1.1386,1.1386,0,1.0746,1.0827,1.0837,1.0897,1.0929,1.0922,1.0987,1.1018,1.1082,1.1105,1.1085,1.1203,1.1236,1.133,1.1354,1.1379,1.1398,1.1372,1.1481,1.1491,1.15,1.1535,1.1548,1.1388,1.1388,1.1388,1.1388,0,1.0869,1.0925,1.0971,1.103,1.1067,1.113,1.115,1.1187,1.1189,1.1208,1.1287,1.1326,1.1387,1.1409,1.1413,1.1504,1.1493,1.1477,1.1443,1.1516,1.1549,1.1562,1.1392,1.1391,1.139,1.139,0,0,1.0978,1.104,1.1057,1.1084,1.1135,1.118,1.1242,1.1299,1.133,1.1374,1.1427,1.1507,1.1492,1.1527,1.1534,1.1577,1.1654,1.1556,1.1558,1.1574,1.1757,1.1769,1.1784,1.165,1.1653,1.1655,1.1753,0,1.1072,1.118,1.119,1.1287,1.134,1.1333,1.1388,1.1426,1.1445,1.1493,1.1515,1.1572,1.1548,1.1568,1.161,1.1636,1.1692,1.1629,1.1701,1.1704,1.169,1.1801,1.1814,1.1905,1.1766,1.1768,1.177,0,1.1196,1.1241,1.1343,1.1387,1.1409,1.1458,1.1511,1.1556,1.16,1.1611,1.1648,1.165,1.1715,1.1678,1.1768,1.1725,1.1755,1.1772,1.1776,1.1784,1.1742,1.1813,1.1934,1.1948,1.179,1.1788,1.1787,0,1.1266,1.1353,1.1425,1.1448,1.15,1.1534,1.1558,1.1598,1.1632,1.1679,1.1701,1.1755,1.1785,1.1828,1.1844,1.1815,1.1934,1.1898,1.1946,1.1946,1.1972,1.1971,1.21,1.1991,1.199,1.199,1.199,0,1.137,1.1433,1.1457,1.1501,1.1571,1.1583,1.1653,1.1675,1.1711,1.176,1.1758,1.1805,1.1824,1.1874,1.1888,1.1961,1.1974,1.1986,1.1989,1.1987,1.1985,1.2007,1.2002,1.1994,1.1993,1.1992,1.1992,0,1.1461,1.1479,1.1557,1.1599,1.1612,1.1662,1.1699,1.1742,1.176,1.1823,1.1838,1.1867,1.1926,1.1946,1.2018,1.2027,1.2112,1.2109,1.2097,1.2098,1.2145,1.214,1.2294,1.2315,1.2191,1.2192,1.2193,0,1.1527,1.1575,1.1621,1.1653,1.1678,1.173,1.1763,1.1776,1.1812,1.1864,1.1901,1.1959,1.2006,1.21,1.2129,1.2184,1.2183,1.2233,1.2191,1.2187,1.2184,1.2181,1.2186,1.2241,1.2242,1.2243,1.2244,0,1.1642,1.1648,1.1695,1.1746,1.1786,1.1827,1.1867,1.1893,1.1912,1.1952,1.2011,1.2047,1.212,1.2177,1.2233,1.2259,1.2256,1.2257,1.2271,1.2269,1.226,1.2266,1.2119,1.2254,1.2253,1.2252,1.2252,1.2251,1.1722,1.1764,1.1803,1.1857,1.1887,1.1924,1.1967,1.1989,1.2038,1.2097,1.2101,1.2165,1.2207,1.2281,1.2309,1.236,1.2346,1.2367,1.2372,1.2377,1.2381,1.2251,1.237,1.237,1.237,1.237,1.237,0,1.1837,1.1862,1.191,1.1965,1.2007,1.1997,1.2041,1.2077,1.2132,1.217,1.2216,1.2284,1.2339,1.2371,1.2427,1.2462,1.2461,1.2476,1.2474,1.248,1.239,1.2372,1.2475,1.2475,1.2475,1.2475,1.2475,1.2475,1.1902,1.1973,1.1983,1.2069,1.2094,1.2155,1.218,1.2214,1.2245,1.232,1.2365,1.2385,1.2421,1.2479,1.253,1.2538,1.2559,1.2575,1.2582,1.2497,1.2486,1.2476,1.2459,1.2579,1.2579,1.2668,1.2668,1.2669]},{"header":{"parameterUnit":"m.s-1","parameterCategory":1,"la1":30.2991,"la2":30.254,"lo1":-89.0895,"lo2":-89.0444,"dy":0.0017,"dx":0.0017,"nx":28,"ny":28,"refTime":"2023-07-29T03:00:00:Z","depth":0,"parameterNumber":3,"parameterNumberName":"V-component_of_WINDS"},"data":[0,0,0,0,0,0,0,0,0,0,0,0,0,0,0,0,0,0,0,0,0,0,0,0,0,0,0,0,0,0,0,0,0,0,0,0,0,0,0,0,0,0,0,0,0,0,0,0,0,0,0,0,0,0,0,0,0,0,2.8601,2.8601,0,2.8586,2.8586,2.8586,2.8591,2.8591,2.8592,2.8592,2.8574,2.8573,2.8573,0,0,0,0,0,0,0,0,0,0,0,0,0,2.863,2.863,2.8601,2.8601,2.8601,2.8586,2.8586,2.8586,2.8591,2.8591,2.8592,2.8592,2.8574,2.8573,2.8572,0,0,0,0,0,0,0,0,0,0,0,0,0,2.8617,2.8629,2.8602,2.8602,2.8602,2.8587,2.8586,2.8586,2.8591,2.8591,2.8592,2.8592,2.8575,2.8573,2.8572,2.8555,0,0,2.8569,2.8568,0,0,0,0,0,0,0,0,2.8617,2.8615,2.8602,2.8602,2.8602,2.8591,2.859,2.8576,2.8591,2.8595,2.8592,2.8593,2.8579,2.8578,2.8574,2.8554,2.8554,2.8569,2.8568,2.8567,2.8567,0,0,0,0,0,0,0,2.8618,2.8616,2.8595,2.8602,2.8602,2.8601,2.86,2.8587,2.8584,2.8595,2.8595,2.8593,2.8579,2.8575,2.8573,2.8553,2.8569,2.8568,2.8567,2.8566,2.8515,2.8515,0,0,0,0,0,0,2.862,2.8617,2.8596,2.8595,2.8611,2.86,2.8599,2.8594,2.8585,2.8584,2.8593,2.8593,2.8577,2.8575,2.8573,2.855,2.8567,2.8566,2.8566,2.8516,2.8515,2.8514,0,0,0,0,0,0,2.862,2.8618,2.8597,2.8606,2.8603,2.8599,2.8594,2.8593,2.8589,2.8583,2.8582,2.8589,2.8577,2.8574,2.8559,2.8549,2.8566,2.8565,2.8517,2.8516,2.8515,2.8505,0,0,0,0,0,0,2.8621,2.8618,2.8613,2.8606,2.8603,2.8584,2.8593,2.8593,2.8587,2.8588,2.858,2.8579,2.8577,2.8561,2.8558,2.8548,2.8564,2.8518,2.8516,2.8515,2.8506,2.8504,2.8502,0,0,0,0,0,2.8622,2.8611,2.8612,2.861,2.8596,2.8584,2.8582,2.8581,2.8587,2.858,2.8576,2.8579,2.8551,2.8559,2.8556,2.8545,2.8518,2.8517,2.8515,2.8507,2.8504,2.8502,0,0,0,0,0,0,2.8616,2.861,2.8612,2.8598,2.8591,2.8585,2.8577,2.8579,2.857,2.8571,2.8569,2.8567,2.8551,2.8547,2.8556,2.8526,2.8535,2.8533,2.853,2.8527,2.8525,2.8526,2.8563,0,0,0,0,0,2.8614,2.8605,2.86,2.8588,2.8584,2.8581,2.8576,2.8576,2.8568,2.8565,2.856,2.8552,2.8541,2.8534,2.8524,2.8506,2.8502,2.8497,2.8494,2.8493,2.849,2.8477,2.8474,2.851,2.851,2.851,0,0,2.8608,2.8603,2.8598,2.8587,2.8581,2.8571,2.8579,2.8568,2.856,2.8564,2.8548,2.8544,2.8534,2.8517,2.8509,2.8513,2.848,2.8491,2.8489,2.8488,2.8475,2.8472,2.8469,2.8509,2.8509,2.8509,0,0,2.8591,2.8588,2.8576,2.8571,2.8563,2.856,2.8557,2.855,2.8547,2.8532,2.8533,2.8523,2.8505,2.8497,2.8491,2.8468,2.8469,2.8465,2.8453,2.844,2.8438,2.8435,2.8425,2.8421,2.8463,2.8463,2.8463,0,2.8584,2.857,2.857,2.8559,2.8553,2.8555,2.8542,2.8537,2.8526,2.852,2.8525,2.8501,2.8495,2.8474,2.8468,2.8464,2.8458,2.8466,2.8438,2.8436,2.8433,2.8423,2.8419,2.8462,2.8462,2.8462,2.8462,0,2.8561,2.8551,2.8543,2.8532,2.8525,2.8513,2.8509,2.8501,2.8501,2.8497,2.848,2.8472,2.8459,2.8454,2.8454,2.8432,2.8435,2.8439,2.8447,2.8429,2.8419,2.8416,2.8461,2.8462,2.8462,2.8462,0,0,2.8542,2.853,2.8526,2.852,2.851,2.8502,2.8488,2.8476,2.8468,2.846,2.8447,2.843,2.8433,2.8426,2.8425,2.8414,2.8393,2.8419,2.8418,2.8412,2.8365,2.8361,2.8356,2.8394,2.8393,2.8392,2.8365,0,2.8523,2.8502,2.85,2.8479,2.8468,2.8469,2.8457,2.8448,2.8444,2.8432,2.8427,2.8414,2.842,2.8415,2.8405,2.8398,2.8383,2.84,2.8379,2.8379,2.8381,2.8352,2.8348,2.8323,2.8361,2.8361,2.836,0,2.85,2.849,2.8468,2.8457,2.8453,2.8442,2.8429,2.8419,2.8408,2.8405,2.8395,2.8395,2.8378,2.8388,2.8364,2.8375,2.8366,2.8361,2.836,2.8357,2.8368,2.8346,2.8315,2.831,2.8355,2.8355,2.8356,0,2.8485,2.8467,2.8451,2.8446,2.8433,2.8425,2.8419,2.8409,2.8401,2.8389,2.8383,2.8369,2.8361,2.8349,2.8343,2.8351,2.8318,2.8328,2.8313,2.8313,2.8306,2.8306,2.8271,2.8303,2.8303,2.8303,2.8303,0,2.8464,2.845,2.8444,2.8434,2.8417,2.8414,2.8397,2.8392,2.8382,2.8369,2.8369,2.8356,2.835,2.8336,2.8331,2.831,2.8307,2.8303,2.8301,2.8302,2.8302,2.8296,2.8297,2.8302,2.8302,2.8302,2.8302,0,2.8446,2.8441,2.8423,2.8412,2.8409,2.8397,2.8387,2.8376,2.837,2.8354,2.8349,2.8341,2.8323,2.8317,2.8296,2.8293,2.8268,2.8269,2.8272,2.8271,2.8256,2.8257,2.8214,2.8207,2.8245,2.8245,2.8244,0,2.8432,2.8422,2.8409,2.8401,2.8394,2.8381,2.8372,2.8368,2.8358,2.8343,2.8333,2.8316,2.8302,2.8274,2.8265,2.8248,2.8247,2.8233,2.8245,2.8244,2.8244,2.8244,2.8242,2.8231,2.823,2.823,2.823,0,2.8408,2.8406,2.8394,2.838,2.8369,2.8358,2.8347,2.8339,2.8333,2.8321,2.8304,2.8293,2.8271,2.8253,2.8235,2.8227,2.8226,2.8226,2.8222,2.8222,2.8223,2.8219,2.8264,2.8227,2.8228,2.8228,2.8228,2.8228,2.839,2.838,2.8369,2.8354,2.8345,2.8334,2.8322,2.8315,2.8301,2.8283,2.8281,2.8261,2.8247,2.8223,2.8213,2.8196,2.82,2.8194,2.8192,2.819,2.8188,2.8226,2.8193,2.8193,2.8193,2.8193,2.8193,0,2.8365,2.8357,2.8344,2.8328,2.8316,2.8317,2.8304,2.8293,2.8276,2.8263,2.8249,2.8227,2.8209,2.8197,2.8178,2.8166,2.8165,2.8161,2.8161,2.8159,2.8187,2.8192,2.8162,2.8162,2.8162,2.8162,2.8162,2.8162,2.835,2.8331,2.8327,2.8302,2.8294,2.8276,2.8268,2.8256,2.8246,2.8222,2.8207,2.8199,2.8186,2.8165,2.8147,2.8144,2.8135,2.8131,2.8127,2.8154,2.8157,2.816,2.8165,2.813,2.813,2.81,2.81,2.81]}]]